ONEWEB-0706, 61611

Orbit data source: Space-Track

ONEWEB-0706, 61611 is a payload satellite owned by Eut. One Web (UK) in LEO that was launched on Sun, 20 Oct 2024 UTC via an FALCON 9 launch vehicle from the Air Force Western Test Range (AFWTR). Payload-class satellites include a variety of spacecraft equipped with specific instruments for various scientific and technological missions. These include communications satellites like Starlink; space stations such as the ISS; scientific satellites like the Hubble; Earth observation satellites from companies like Planet Labs, Umbra, and HawkEye 360; GPS; miniature CubeSats for education and research; and military/defense satellites.

Loading next visibility...
Identifier
61611, 2024-188T
Orbit
LEO
Last TLE update
13 hours ago
Origin
Manufacturer
One Web
Mission
Operational Commercial Communications
Bus & Motor
ARROW, Unknown motor
Mass
148 kg wet, ~140 kg dry
Launch date (UTC)
2024-10-20 (9 months ago)
Launch vehicle
FALCON 9
Launch site
Air Force Western Test Range (AFWTR)
Object type
Payload
Rocket body
Debris
Shape & HBR
Trap Box + 2 Pan, 5 m
Radar Cross Section
2.032 m², Large (>1 m²)

Expand to show TLE details & history

TLE from 13 hours ago
0 ONEWEB-0706
1 61611U 24188T   25189.75348760  .00000694  00000-0  19661-2 0  9997
2 61611  87.8826 104.7608 0002012  65.9430 294.1908 13.09905337 38402
Epoch: 2025-07-08T18:05Z
TLE epoch observation values (Epoch: 2025-07-08T18:05:01.328Z)
Latitude
0.00003°
Longitude
-93.43868°
Altitude
1,225.785 km
Speed
7.242 km/s
True Right ascension
06h 59m 02s
True Declination
0° 00' 00"
Sunlit
Object was in daylight at epoch
Visualization orbit readout
Latitude
-15.72755°
Longitude
-94.13792°
Altitude
1,229.513 km
Speed
7.239 km/s
Apparent Right ascension
06h 57m 35s
Apparent Declination
-26° 36' 16"
Sunlit
Object is in daylight
Visualization observer readout
Local Sidereal Time
18:59:35
Azimuth
1.948° NNE
Elevation
-76.682°
Doppler factor
1
Orbital elements
Apogee altitude
1,222.175 km
Perigee altitude
1,219.117 km
Semi-major axis
7,598.783 km
Eccentricity
0.0002
Inclination
87.8826°
RAAN
104.7608°
Arg. of periapsis
65.943°
True anomaly
Unknown
Mean anomaly
294.1908°
Eccentric anomaly
Unknown
Mean motion
3.27663 °/min
Orbital period
109.87 mins
BSTAR
0.0019661
Loading maneuver chart data...
Loading SW <> Apogee altitude chart data...
Loading historical data...
Loading historical data...
Loading historical data...
Loading historical data...
Loading historical data...
Loading historical data...
Loading historical data...

ONEWEB-0706 Visibility forecast

Observer location: undefined°, undefined°

Span
Click to sort rows by Start time (UTC) header in descending order
Start Az.
Max El. time (UTC)
Max El. Az.
Max El.
End time (UTC)
End Az.
12 mins2025-07-09 07:31:11.826Z342.248° N2025-07-09 07:37:11.826Z283.781° WNW31.525°2025-07-09 07:43:11.826Z218.588° SW
11 mins2025-07-09 18:02:11.826Z143.914° SSE2025-07-09 18:07:11.826Z84.448° E34.586°2025-07-09 18:13:11.826Z16.858° NNE
11 mins2025-07-09 19:52:11.826Z223.655° SW2025-07-09 19:57:11.826Z276.521° WNW28.845°2025-07-09 20:03:11.826Z339.124° N
11 mins2025-07-10 05:32:11.826Z23.227° NE2025-07-10 05:37:11.826Z77.732° E30.038°2025-07-10 05:43:11.826Z141.435° SSE
|